Find Kosmos-1832

NORAD ID: 17587 Int'l Des: 1987-026 Owner: UNKS Country: SU operational
LEOCIRCULARPOLAR

Live Position

Loading 3D Globe...

About Kosmos-1832

Description loading...

Upcoming Passes

Passes for default location (London). Set your location on the main map for personalized predictions.

Altitude History

Loading altitude history...

Two-Line Element Set

1 17587U 87026F 26106.62133351 -.00000001 00000-0 -60890-4 0 9990
2 17587 82.5671 241.1361 0008185 328.7654 42.2862 12.64344419803928
Epoch: Apr 16, 2026 • Age: 21 hours

Current Status

Altitude 1414.8 km
Velocity 7.16 km/s
Sub-Earth Point 57.41°N, 134.11°W
Launch Date Mar 13, 1987
Age 39 years
Type other

Technical Details

Classification Payload
Mass 225.00 kg
Dry Mass 225.00 kg
Total Mass 225.00 kg
Length 1.60 m
Diameter 0.80 m
Span 7.00 m
Shape Cyl + Ant
Manufacturer NPOPM
Bus Type Strela-3
Phase Status In Orbit
Owner/State UNKS/SU

Most Searched